Station TESL1 - 8764044 - Tesoro Marine Terminal, Berwick, Atchafalaya River, LA Image indicating link to RSS feed of recent meteorological observations for station TESL1


Conditions at TESL1 as of
(7:00 am CDT)
1200 GMT on 09/01/2026:
     

Click on the graph icon in the table below to see a time series plot of the last five days of that observation.

5-day plot - Wind Direction Wind Direction (WDIR): E ( 80 deg true )
5-day plot - Wind Speed Wind Speed (WSPD): 4.1 kts
5-day plot - Wind Gust Wind Gust (GST): 7.0 kts
5-day plot - Atmospheric Pressure Atmospheric Pressure (PRES):30.00 in
5-day plot - Pressure Tendency Pressure Tendency (PTDY):+0.03 in ( Rising )
5-day plot - Air Temperature Air Temperature (ATMP): 79.3 °F
5-day plot - Water Temperature Water Temperature (WTMP): 86.4 °F
5-day plot - Wind Speed at 10 Meters Wind Speed at 10 meters (WSPD10M): 3.9 kts
5-day plot - Wind Speed at 20 Meters Wind Speed at 20 meters (WSPD20M): 5.8 kts
5-day plot -  Wind Speed, Wind Gust and Atmospheric Pressure Combined plot of Wind Speed, Gust, and Air Pressure
NOS Water Level Observation Network Water Level
Previous observations
TIME
(CDT)
5-day plot - Wind Direction
WDIR
 
5-day plot - Wind Speed
WSPD
kts
5-day plot - Wind Gust
GST
kts
5-day plot - Wave Height
WVHT
ft
5-day plot - Dominant Wave Period
DPD
sec
5-day plot - Average Wave Period
APD
sec
5-day plot - Mean Wave Direction
MWD
 
5-day plot - Atmospheric Pressure
PRES
in
5-day plot - Pressure Tendency
PTDY
in
5-day plot - Air Temperature
ATMP
°F
5-day plot - Water Temperature
WTMP
°F
5-day plot - Dew Point
DEWP
°F
5-day plot - Salinity
SAL
psu
5-day plot - Visibility
VIS
nmi
5-day plot - Tide (above MLLW)
TIDE
ft
2026-09-01 06:54 amENE 5.1 5.1----30.00- 79.5 86.4----
2026-09-01 06:48 amENE 5.1 8.0----29.99- 79.5 86.4----
2026-09-01 06:42 amENE 4.1 6.0----29.99- 79.2 86.4----
2026-09-01 06:36 am E 4.1 6.0----29.99- 79.0 86.4----
2026-09-01 06:30 amENE 4.1 5.1----29.99- 79.0 86.4----
2026-09-01 06:24 amENE 4.1 5.1----29.98- 78.8 86.4----
2026-09-01 06:18 amESE 2.9 5.1----29.98-- 86.4----
2026-09-01 06:12 am SE 2.9 5.1----29.98-- 86.4----
2026-09-01 06:06 amSSE 1.9 4.1----29.98-- 86.4----
2026-09-01 06:00 am SE 1.9 2.9----29.98+0.00 78.6 86.4----
2026-09-01 05:54 am SE 1.9 1.9----29.98- 78.6 86.4----
2026-09-01 05:48 amSSE 1.9 2.9----29.98- 78.4 86.4----
2026-09-01 05:42 am S 2.9 7.0----29.98- 78.4 86.4----
2026-09-01 05:36 amSSE 6.0 7.0----29.97- 78.3 86.4----
2026-09-01 05:30 am SE 4.1 9.9----29.97- 78.8 86.5----
2026-09-01 05:24 amESE 5.1 15.9----29.97- 78.8 86.5----
2026-09-01 05:18 amSSW 8.0 11.1----29.97-- 86.5----
2026-09-01 05:12 am E 1.9 5.1----29.96-- 86.4----
2026-09-01 05:06 am E 4.1 7.0----29.96-- 86.5----
2026-09-01 05:00 amENE 5.1 6.0----29.96- 79.7 86.5----
2026-09-01 04:54 amENE 5.1 7.0----29.96- 79.5 86.5----
2026-09-01 04:48 amENE 5.1 7.0----29.96- 79.7 86.5----
2026-09-01 04:42 amENE 5.1 7.0----29.96- 79.5 86.5----
2026-09-01 04:36 amENE 4.1 5.1----29.97- 79.5 86.5----
2026-09-01 04:30 am E 2.9 4.1----29.97- 79.5 86.5----
2026-09-01 04:24 amENE 2.9 5.1----29.97- 79.5 86.5----
2026-09-01 04:18 amENE 4.1 5.1----29.97-- 86.5----
2026-09-01 04:12 am E 1.9 5.1----29.97-- 86.5----
2026-09-01 04:06 amENE 4.1 6.0----29.97-- 86.5----
2026-09-01 04:00 am NE 6.0 8.0----29.97-0.03 79.5 86.5----
2026-09-01 03:54 am NE 7.0 7.0----29.96- 79.5 86.5----
2026-09-01 03:48 am NE 5.1 7.0----29.97-- 86.5----
2026-09-01 03:42 amENE 5.1 6.0----29.97-- 86.5----
2026-09-01 03:36 amENE 4.1 6.0----29.97-- 86.5----
2026-09-01 03:30 am NE 5.1 7.0----29.97- 79.2 86.5----
2026-09-01 03:24 amENE 5.1 7.0----29.97- 79.0 86.5----
2026-09-01 03:18 am NE 7.0 7.0----29.97-- 86.5----
2026-09-01 03:12 amENE 5.1 8.0----29.97-- 86.5----
2026-09-01 03:06 am NE 6.0 7.0----29.97-- 86.5----
2026-09-01 03:00 am E 2.9 4.1----29.98-0.03 79.0 86.5----
2026-09-01 02:54 am E 2.9 6.0----29.98- 79.0 86.5----
2026-09-01 02:48 amENE 4.1 5.1----29.98- 78.8 86.5----
2026-09-01 02:42 amENE 2.9 5.1----29.98- 78.8 86.5----
2026-09-01 02:36 am E 2.9 6.0----29.98- 78.8 86.5----
2026-09-01 02:30 am E 4.1 6.0----29.97- 78.8 86.5----
2026-09-01 02:24 amENE 4.1 8.0----29.97- 79.0 86.7----
2026-09-01 02:18 amENE 6.0 7.0----29.97- 79.0 86.7----
2026-09-01 02:12 amENE 5.1 7.0----29.98- 79.0 86.7----
2026-09-01 02:06 am E 4.1 6.0----29.98- 79.0 86.7----
2026-09-01 02:00 am E 2.9 6.0------ 79.0 86.7----
2026-09-01 01:54 amESE 5.1 8.9------ 79.0 86.7----
2026-09-01 01:48 am E 5.1 11.1----29.99- 78.8 86.7----
2026-09-01 01:42 am E 5.1 6.0----29.99- 78.4 86.7----
2026-09-01 01:36 am E 5.1 6.0----29.99- 78.4 86.7----
2026-09-01 01:30 am E 5.1 8.0----29.99-- 86.7----
2026-09-01 01:24 amENE 5.1 8.0----29.99-- 86.7----
2026-09-01 01:18 am E 2.9 5.1----30.00-- 86.7----
2026-09-01 01:12 am E 2.9 4.1----30.00-- 86.7----
2026-09-01 01:06 am E 2.9 5.1----30.00-- 86.7----
2026-09-01 01:00 amESE 4.1 6.0----30.00+0.00 77.7 86.7----
2026-09-01 12:54 amESE 2.9 6.0----29.99- 77.7 86.7----
2026-09-01 12:48 amESE 6.0 11.1----30.00- 77.7 86.7----
2026-09-01 12:42 am SE 6.0 11.1----29.99- 77.9 86.7----
2026-09-01 12:36 amSSE 8.0 12.0----30.00- 78.1 86.7----
2026-09-01 12:30 am SE 8.0 11.1----30.00- 78.3 86.7----
2026-09-01 12:24 am SE 6.0 12.0----30.01- 78.4 86.9----
2026-09-01 12:18 am SE 5.1 7.0----30.01-- 86.9----
2026-09-01 12:12 am SE 5.1 7.0----30.01-- 86.9----
2026-09-01 12:06 am SE 5.1 8.9----30.01-- 86.9----
2026-09-01 12:00 amSSE 8.0 11.1----30.01+0.04 78.6 86.9----
2026-08-31 11:54 pmSSE 8.0 11.1----30.01- 78.6 86.9----
2026-08-31 11:48 pmSSE 8.0 15.9----30.01- 78.8 86.9----
2026-08-31 11:42 pm S 8.9 12.0----30.01- 79.2 86.9----
2026-08-31 11:36 pm E 5.1 8.0----30.00- 79.9 86.9----
2026-08-31 11:30 pmENE 5.1 7.0----30.00- 79.7 86.9----
2026-08-31 11:24 pm E 5.1 7.0----30.01- 79.9 86.9----
2026-08-31 11:18 pmENE 5.1 8.0----30.00-- 86.9----
2026-08-31 11:12 pmENE 7.0 8.9----30.00-- 86.9----
2026-08-31 11:06 pmENE 5.1 7.0----30.00-- 86.9----
2026-08-31 11:00 pmENE 6.0 8.0----30.01+0.04 80.1 86.9----
2026-08-31 10:54 pmENE 6.0 8.9----30.00- 80.2 86.9----
2026-08-31 10:48 pmENE 6.0 9.9----30.00-- 86.9----
2026-08-31 10:42 pm E 6.0 8.9----30.00-- 86.9----
2026-08-31 10:36 pmENE 7.0 9.9----30.00-- 86.9----
2026-08-31 10:30 pm E 7.0 9.9----30.00- 80.2 86.9----
2026-08-31 10:24 pmENE 8.0 13.0----30.00- 80.6 86.9----
2026-08-31 10:18 pmENE 8.9 12.0------- 86.9----
2026-08-31 10:12 pmENE 7.0 11.1------- 86.9----
2026-08-31 10:06 pmENE 8.9 11.1------- 86.9----
2026-08-31 10:00 pmENE 9.9 12.0----29.99+0.03 80.8 86.9----
2026-08-31 09:54 pmENE 8.0 13.0----29.99- 81.0 86.9----
2026-08-31 09:48 pmENE 8.9 12.0----29.98- 81.0 86.9----
2026-08-31 09:42 pmENE 9.9 12.0----29.98- 80.8 86.9----
2026-08-31 09:36 pmENE 8.9 12.0----29.98- 80.6 86.9----
2026-08-31 09:30 pmENE 9.9 13.0----29.98- 80.8 86.9----
2026-08-31 09:24 pm NE 9.9 11.1----29.98- 81.1 86.9----
2026-08-31 09:18 pm NE 9.9 11.1----29.98-- 86.9----
2026-08-31 09:12 pmENE 8.9 11.1----29.98-- 86.9----
2026-08-31 09:06 pmENE 7.0 11.1----29.98-- 86.9----
2026-08-31 09:00 pm NE 8.9 9.9----29.97+0.00 80.8 86.9----
2026-08-31 08:54 pmENE 8.0 9.9----29.98- 80.8 86.9----
2026-08-31 08:48 pmENE 7.0 9.9----29.98- 81.0 86.9----
2026-08-31 08:42 pmENE 8.9 12.0----29.98- 81.1 86.9----
2026-08-31 08:36 pmENE 8.0 11.1----29.98- 81.1 86.9----
2026-08-31 08:30 pmENE 8.0 9.9----29.97- 81.1 86.9----
2026-08-31 08:24 pmENE 7.0 8.9----29.97- 81.1 86.9----
2026-08-31 08:18 pmENE 8.0 11.1----29.97-- 86.9----
2026-08-31 08:12 pmENE 7.0 9.9----29.97-- 86.9----
2026-08-31 08:06 pmENE 7.0 9.9----29.97-- 86.9----
2026-08-31 08:00 pmENE 8.9 12.0----29.96-0.01 81.5 86.9----
2026-08-31 07:54 pmENE 8.9 12.0----29.96- 81.9 86.9----
2026-08-31 07:48 pmENE 8.0 8.9----29.96-- 86.9----
2026-08-31 07:42 pmENE 7.0 8.9----29.96-- 86.9----
2026-08-31 07:36 pmENE 7.0 11.1----29.96-- 86.9----
2026-08-31 07:30 pmENE 6.0 8.0----29.96- 82.2 86.9----
2026-08-31 07:24 pmENE 6.0 8.9----29.96- 82.2 86.9----
2026-08-31 07:18 pmENE 8.9 12.0----29.96-- 86.9----
2026-08-31 07:12 pmENE 8.0 12.0----29.96-- 86.9----
2026-08-31 07:06 pmENE 7.0 9.9----29.96-- 86.9----
2026-08-31 07:00 pmENE 7.0 11.1----29.96-0.02 82.8 87.1----
2026-08-31 06:54 pmENE 8.0 9.9----29.96- 82.8 87.1----
2026-08-31 06:48 pmENE 7.0 8.9----29.96-- 87.1----
2026-08-31 06:42 pmENE 8.0 9.9----29.97-- 87.1----
2026-08-31 06:36 pmENE 7.0 9.9----29.97-- 87.1----
2026-08-31 05:48 pmENE 8.0 11.1----29.98- 83.8 87.1----
2026-08-31 05:42 pmENE 7.0 11.1----29.98- 83.8 87.1----
2026-08-31 05:36 pmENE 8.0 11.1----29.98- 84.0 87.1----
2026-08-31 05:30 pmENE 7.0 8.9----29.98- 84.0 87.1----
2026-08-31 05:24 pmENE 7.0 11.1----29.98- 84.0 87.1----
2026-08-31 05:18 pmENE 8.9 12.0----29.98- 84.2 87.1----
2026-08-31 05:12 pmENE 7.0 8.9----29.98- 84.2 87.1----
2026-08-31 05:06 pmENE 7.0 8.9----29.98- 84.4 87.1----
2026-08-31 05:00 pm E 8.9 13.0----29.98-0.01 84.4 87.1----
2026-08-31 04:54 pmENE 8.0 11.1----29.98- 84.4 87.1----
2026-08-31 04:48 pmENE 8.9 12.0----29.98- 84.4 87.1----
2026-08-31 04:42 pm E 7.0 11.1----29.98- 84.4 87.1----
2026-08-31 04:36 pmENE 7.0 8.0----29.98- 84.0 86.9----
2026-08-31 04:30 pmENE 7.0 8.9----29.98- 84.2 87.1----
2026-08-31 04:24 pmENE 6.0 9.9----29.98- 84.6 86.9----
2026-08-31 04:18 pmENE 8.9 12.0----29.98-- 87.1----
2026-08-31 04:12 pmENE 8.9 13.0----29.98-- 87.1----
2026-08-31 04:06 pmENE 8.0 11.1----29.98-- 86.9----
2026-08-31 04:00 pm E 8.0 11.1----29.98-0.03 84.0 86.9----
2026-08-31 03:54 pmENE 6.0 9.9----29.98- 83.7 86.9----
2026-08-31 03:48 pmENE 7.0 11.1----29.98- 83.3 87.1----
2026-08-31 03:42 pmENE 6.0 8.9----29.98- 82.8 87.1----
2026-08-31 03:36 pmENE 8.0 12.0----29.98- 82.6 87.1----
2026-08-31 03:30 pmENE 8.9 15.0----29.98- 82.8 87.1----
2026-08-31 03:24 pm NE 13.0 17.1----29.98- 83.3 87.1----
2026-08-31 03:18 pm NE 8.0 12.0----29.98-- 86.9----
2026-08-31 03:12 pmNNE 9.9 22.0----29.98-- 86.9----
2026-08-31 03:06 pmENE 8.9 13.0----29.98-- 86.9----
2026-08-31 03:00 pm NE 8.0 11.1----29.98-0.04 85.3 86.9----
2026-08-31 02:54 pm NE 8.9 13.0----29.98- 84.9 86.9----
2026-08-31 02:48 pm NE 13.0 15.9----29.98- 84.9 86.9----
2026-08-31 02:42 pm NE 12.0 17.1----29.98- 85.6 86.9----
2026-08-31 02:36 pm E 8.0 14.0----29.98- 86.5 86.9----
2026-08-31 02:30 pm E 11.1 14.0----29.98- 86.4 86.9----
2026-08-31 02:24 pm E 7.0 9.9----29.99- 85.5 86.9----
2026-08-31 02:18 pmESE 8.9 14.0----29.99-- 86.9----
2026-08-31 02:12 pm E 13.0 17.1----29.99-- 86.9----
2026-08-31 02:06 pm E 8.0 12.0----29.99-- 86.9----
2026-08-31 02:00 pm E 8.0 12.0----29.99-0.03 85.3 86.9----
2026-08-31 01:54 pmENE 6.0 12.0----29.99- 85.5 86.9----
2026-08-31 01:48 pm NE 9.9 13.0----29.99- 85.8 86.9----
2026-08-31 01:42 pmENE 9.9 15.0----29.99- 86.0 86.9----
2026-08-31 01:36 pmENE 9.9 17.1----29.99- 85.6 86.9----
2026-08-31 01:30 pm E 7.0 8.9----30.00- 85.1 86.7----
2026-08-31 01:24 pm E 6.0 8.9----30.00- 84.0 86.7----
2026-08-31 01:18 pmESE 7.0 13.0----30.01-- 86.7----
2026-08-31 01:12 pmENE 12.0 15.0----30.01-- 86.7----
2026-08-31 01:06 pm E 9.9 17.1----30.01-- 86.7----
2026-08-31 01:00 pm E 12.0 17.1----30.01-0.01 86.2 86.7----
2026-08-31 12:54 pmENE 11.1 15.0----30.01- 86.0 86.9----
2026-08-31 12:48 pmENE 11.1 15.9----30.01-- 86.9----
2026-08-31 12:42 pmENE 7.0 12.0----30.01-- 86.9----
2026-08-31 12:36 pmENE 9.9 15.9----30.01-- 86.9----
2026-08-31 12:30 pmENE 13.0 17.1----30.01- 85.5 86.7----
2026-08-31 12:24 pm NE 15.0 18.1----30.02- 85.3 86.7----
2026-08-31 12:18 pmENE 12.0 15.9----30.02-- 86.9----
2026-08-31 12:12 pm NE 9.9 15.9----30.02-- 86.9----
2026-08-31 12:06 pm NE 12.0 15.0----30.03-- 86.7----
2026-08-31 12:00 pmENE 12.0 15.0----30.02+0.00 84.7 86.7----
2026-08-31 11:54 am NE 12.0 15.0----30.03- 85.1 86.7----
2026-08-31 11:48 am NE 12.0 15.0----30.03- 85.5 86.7----
2026-08-31 11:42 am NE 12.0 13.0----30.03- 85.5 86.7----
2026-08-31 11:36 am NE 11.1 15.0----30.03- 85.3 86.9----
2026-08-31 11:30 am NE 11.1 15.0----30.02- 85.5 86.9----
2026-08-31 11:24 am NE 8.9 13.0----30.02- 85.6 86.9----
2026-08-31 11:18 am NE 14.0 15.9----30.02-- 86.9----
2026-08-31 11:12 am NE 12.0 15.0----30.02-- 86.9----
2026-08-31 11:06 am NE 13.0 15.9----30.02-- 86.9----
2026-08-31 11:00 am NE 12.0 14.0----30.02+0.01 85.1 86.9----
2026-08-31 10:54 am NE 9.9 14.0----30.02- 84.7 86.9----
2026-08-31 10:48 am NE 12.0 15.0----30.03- 84.4 86.9----
2026-08-31 10:42 amENE 11.1 13.0----30.03- 84.2 86.9----
2026-08-31 10:36 am NE 11.1 12.0----30.03- 84.0 86.9----
2026-08-31 10:30 amENE 8.0 13.0----30.03- 83.8 86.9----
2026-08-31 10:24 amENE 8.9 15.0----30.03- 83.7 86.9----
2026-08-31 10:18 am NE 13.0 15.9----30.03-- 86.9----
2026-08-31 10:12 amENE 8.0 13.0----30.02-- 86.9----
2026-08-31 10:06 amNNE 8.0 11.1----30.02-- 86.9----
2026-08-31 10:00 am NE 8.9 12.0----30.02+0.03 82.6 86.9----
2026-08-31 09:54 am NE 8.0 12.0----30.02- 82.6 86.9----
2026-08-31 09:48 am NE 9.9 12.0----30.02- 82.4 86.9----
2026-08-31 09:42 am NE 9.9 14.0----30.03- 82.2 86.9----
2026-08-31 09:36 am NE 9.9 12.0----30.03- 82.0 86.9----
2026-08-31 09:30 amNNE 8.9 12.0----30.03- 81.9 86.7----
2026-08-31 09:24 am NE 8.9 12.0----30.03- 81.9 86.7----
2026-08-31 09:18 am NE 9.9 13.0----30.03-- 86.7----
2026-08-31 09:12 am NE 8.0 12.0----30.02-- 86.7----
2026-08-31 09:06 amNNE 8.0 12.0----30.02-- 86.7----
2026-08-31 09:00 amNNE 8.0 12.0----30.02+0.04 81.5 86.7----
2026-08-31 08:54 amNNE 9.9 12.0----30.02- 81.1 86.7----
2026-08-31 08:48 amNNE 8.9 12.0----30.02-- 86.7----
2026-08-31 08:42 am NE 8.0 11.1----30.02-- 86.7----
2026-08-31 08:36 amNNE 8.9 12.0----30.02-- 86.7----
2026-08-31 08:30 am NE 7.0 11.1----30.01- 81.0 86.7----
2026-08-31 08:24 amNNE 7.0 9.9----30.01- 80.8 86.9----
2026-08-31 08:18 amNNE 8.0 11.1----30.01-- 86.9----
2026-08-31 08:12 am NE 8.0 11.1----30.01-- 86.9----
2026-08-31 08:06 am NE 6.0 9.9----30.01-- 86.9----
2026-08-31 08:00 am NE 6.0 8.0----30.01+0.03 80.1 86.9----
2026-08-31 07:54 am NE 7.0 11.1----30.01- 80.1 86.9----
2026-08-31 07:48 amNNE 5.1 8.0----30.00-- 86.9----
2026-08-31 07:42 amNNE 4.1 8.0----30.00-- 86.9----
2026-08-31 07:36 amNNE 4.1 6.0----30.00-- 86.9----
2026-08-31 07:30 amNNE 4.1 7.0----30.00- 79.0 86.9----
2026-08-31 07:24 amNNE 4.1 7.0----30.00- 78.8 86.9----
2026-08-31 07:18 amNNE 4.1 7.0----30.00-- 86.9----
2026-08-31 07:12 am N 2.9 5.1----30.00-- 86.9----
2026-08-31 07:06 am N 4.1 6.0----30.00-- 86.9----
2026-08-31 07:00 am N 4.1 6.0----29.99+0.02 78.6 86.9----
2026-08-31 06:54 am N 4.1 6.0----29.99- 78.6 86.9----